Total_Precipitation_Accumulation
0.03 0.06 0.08 0.08 0.07 0.05 0.05 0.06 0.12 0.11 0.13 0.12 0.05 0.02 0.02 0.03 0.05 0.04 0.03 0.06 0.05 0.06 0.08 0.12 0.15 0.20 0.24 0.24 0.25 0.29 0.39 0.56 0.72 0.82 0.68 0.48 0.37 0.31 0.29 0.34 0.41 0.52 0.63 0.71
0.02 0.04 0.06 0.07 0.08 0.06 0.04 0.03 0.03 0.05 0.08 0.05 0.03 0.03 0.04 0.04 0.04 0.04 0.03 0.05 0.05 0.07 0.10 0.13 0.15 0.15 0.16 0.19 0.20 0.25 0.33 0.38 0.49 0.54 0.46 0.32 0.20 0.16 0.20 0.29 0.37 0.45 0.52 0.58
0.02 0.05 0.06 0.09 0.09 0.06 0.04 0.05 0.05 0.07 0.08 0.06 0.06 0.05 0.06 0.05 0.04 0.03 0.03 0.02 0.02 0.03 0.04 0.06 0.08 0.09 0.09 0.11 0.17 0.28 0.35 0.35 0.41 0.46 0.40 0.28 0.17 0.15 0.19 0.27 0.33 0.38 0.40 0.44
0.03 0.06 0.11 0.09 0.07 0.06 0.06 0.07 0.07 0.08 0.08 0.08 0.09 0.07 0.06 0.06 0.05 0.03 0.02 0.02 0.02 0.02 0.03 0.04 0.05 0.06 0.05 0.08 0.16 0.26 0.31 0.32 0.42 0.49 0.46 0.36 0.30 0.27 0.30 0.34 0.37 0.39 0.38 0.39
0.10 0.08 0.08 0.08 0.10 0.11 0.12 0.12 0.11 0.12 0.12 0.11 0.09 0.07 0.06 0.04 0.03 0.02 0.02 0.02 0.03 0.03 0.04 0.04 0.04 0.05 0.06 0.09 0.16 0.23 0.29 0.36 0.41 0.50 0.52 0.46 0.43 0.43 0.45 0.46 0.44 0.43 0.41 0.41
0.10 0.13 0.15 0.13 0.15 0.14 0.13 0.22 0.19 0.15 0.12 0.09 0.07 0.10 0.09 0.04 0.04 0.03 0.02 0.03 0.03 0.04 0.04 0.04 0.05 0.08 0.12 0.14 0.19 0.26 0.32 0.38 0.44 0.55 0.61 0.57 0.55 0.56 0.56 0.59 0.54 0.50 0.46 0.50
0.14 0.18 0.19 0.19 0.15 0.12 0.24 0.33 0.21 0.15 0.10 0.09 0.13 0.15 0.11 0.06 0.06 0.04 0.03 0.03 0.04 0.05 0.05 0.06 0.10 0.15 0.19 0.20 0.23 0.27 0.31 0.36 0.46 0.61 0.68 0.67 0.71 0.74 0.71 0.67 0.66 0.66 0.61 0.61
0.25 0.35 0.32 0.21 0.15 0.17 0.24 0.24 0.27 0.24 0.15 0.12 0.11 0.09 0.06 0.05 0.04 0.04 0.04 0.04 0.05 0.06 0.08 0.11 0.15 0.22 0.27 0.29 0.29 0.30 0.34 0.41 0.53 0.61 0.57 0.56 0.74 0.82 0.84 0.83 0.80 0.80 0.78 0.73
0.28 0.34 0.27 0.25 0.24 0.22 0.24 0.26 0.24 0.22 0.17 0.14 0.12 0.10 0.07 0.06 0.05 0.05 0.06 0.07 0.08 0.10 0.14 0.18 0.25 0.35 0.44 0.44 0.43 0.40 0.42 0.48 0.55 0.59 0.65 0.74 0.81 0.84 0.88 0.91 0.88 0.83 0.85 0.83
0.26 0.25 0.22 0.26 0.27 0.21 0.20 0.17 0.12 0.12 0.13 0.12 0.11 0.10 0.10 0.09 0.08 0.08 0.08 0.08 0.09 0.13 0.20 0.28 0.38 0.49 0.57 0.58 0.56 0.53 0.50 0.50 0.52 0.59 0.65 0.80 0.95 0.95 0.91 0.89 0.93 0.93 0.90 0.87
0.23 0.26 0.28 0.30 0.31 0.24 0.16 0.12 0.09 0.08 0.10 0.11 0.11 0.11 0.11 0.11 0.11 0.10 0.09 0.08 0.09 0.16 0.27 0.36 0.49 0.60 0.62 0.63 0.66 0.67 0.62 0.56 0.55 0.60 0.69 0.81 0.90 0.97 0.91 0.89 0.77 0.79 0.81 0.83
0.25 0.26 0.28 0.28 0.24 0.22 0.16 0.11 0.10 0.10 0.08 0.08 0.09 0.10 0.10 0.11 0.12 0.11 0.10 0.10 0.15 0.22 0.29 0.35 0.48 0.63 0.68 0.72 0.78 0.83 0.81 0.75 0.71 0.71 0.76 0.80 0.87 0.87 0.74 0.65 0.54 0.51 0.52 0.54
0.19 0.18 0.18 0.18 0.15 0.12 0.11 0.09 0.08 0.07 0.06 0.07 0.07 0.08 0.08 0.08 0.08 0.09 0.09 0.12 0.18 0.23 0.28 0.33 0.42 0.54 0.65 0.78 0.89 0.95 0.93 0.90 0.87 0.80 0.81 0.86 0.91 0.97 0.94 0.78 0.63 0.52 0.43 0.38
0.14 0.13 0.13 0.10 0.08 0.06 0.05 0.05 0.04 0.05 0.06 0.06 0.06 0.06 0.07 0.07 0.08 0.10 0.12 0.14 0.17 0.21 0.27 0.35 0.45 0.52 0.61 0.76 0.88 0.92 0.93 0.91 0.89 0.87 0.85 0.88 0.92 0.94 1.00 1.05 0.95 0.78 0.59 0.45
0.16 0.12 0.11 0.07 0.05 0.04 0.04 0.05 0.05 0.06 0.06 0.06 0.06 0.06 0.07 0.09 0.11 0.13 0.15 0.17 0.22 0.25 0.30 0.40 0.50 0.57 0.69 0.82 0.89 0.90 0.90 0.88 0.84 0.86 0.87 0.86 0.89 0.90 0.91 0.99 1.00 0.95 0.82 0.64
0.12 0.11 0.08 0.07 0.06 0.05 0.06 0.07 0.07 0.08 0.09 0.08 0.08 0.08 0.09 0.10 0.12 0.14 0.17 0.21 0.31 0.35 0.41 0.52 0.59 0.63 0.76 0.89 0.96 0.94 0.91 0.83 0.77 0.77 0.81 0.83 0.85 0.88 0.87 0.95 0.97 0.98 0.89 0.74
0.12 0.09 0.08 0.07 0.07 0.08 0.09 0.09 0.10 0.10 0.10 0.10 0.10 0.10 0.10 0.12 0.17 0.21 0.24 0.26 0.33 0.40 0.49 0.62 0.65 0.66 0.79 0.93 1.02 1.00 0.93 0.83 0.70 0.69 0.72 0.78 0.84 0.86 0.86 0.89 0.91 0.93 0.83 0.64
0.10 0.09 0.08 0.08 0.09 0.10 0.11 0.12 0.13 0.14 0.15 0.15 0.15 0.15 0.19 0.25 0.35 0.41 0.41 0.42 0.45 0.44 0.46 0.58 0.63 0.69 0.77 0.88 0.96 1.00 0.98 0.90 0.77 0.67 0.65 0.71 0.78 0.83 0.85 0.84 0.84 0.84 0.77 0.57
0.09 0.09 0.10 0.14 0.18 0.19 0.19 0.19 0.20 0.21 0.22 0.21 0.22 0.25 0.30 0.38 0.49 0.57 0.59 0.62 0.68 0.66 0.58 0.56 0.61 0.64 0.73 0.79 0.84 0.93 0.90 0.84 0.75 0.59 0.58 0.64 0.71 0.81 0.82 0.77 0.78 0.78 0.69 0.57
0.06 0.06 0.07 0.16 0.29 0.34 0.34 0.33 0.33 0.32 0.30 0.29 0.31 0.35 0.41 0.47 0.57 0.68 0.71 0.68 0.69 0.75 0.70 0.62 0.58 0.61 0.65 0.70 0.73 0.78 0.76 0.77 0.73 0.56 0.52 0.66 0.74 0.80 0.77 0.70 0.72 0.69 0.59 0.54
0.03 0.03 0.04 0.07 0.14 0.22 0.27 0.28 0.29 0.33 0.34 0.38 0.48 0.58 0.66 0.64 0.67 0.79 0.89 0.79 0.65 0.69 0.67 0.60 0.53 0.54 0.57 0.68 0.71 0.73 0.71 0.70 0.72 0.61 0.53 0.62 0.72 0.76 0.73 0.66 0.62 0.56 0.49 0.48
0.02 0.03 0.05 0.07 0.08 0.09 0.11 0.13 0.20 0.30 0.38 0.43 0.50 0.63 0.77 0.83 0.88 0.88 0.81 0.79 0.72 0.72 0.64 0.56 0.50 0.48 0.48 0.55 0.67 0.71 0.69 0.68 0.71 0.68 0.61 0.62 0.69 0.72 0.70 0.60 0.53 0.46 0.42 0.41
0.01 0.02 0.03 0.03 0.04 0.06 0.08 0.11 0.17 0.27 0.37 0.44 0.53 0.72 0.88 0.93 1.02 1.16 0.98 0.72 0.67 0.68 0.63 0.53 0.49 0.45 0.42 0.41 0.55 0.63 0.64 0.68 0.71 0.70 0.66 0.60 0.58 0.59 0.57 0.50 0.44 0.41 0.41 0.41
0.02 0.02 0.02 0.02 0.05 0.07 0.11 0.14 0.18 0.25 0.34 0.41 0.49 0.66 0.88 1.04 1.00 0.91 0.86 0.74 0.64 0.58 0.56 0.51 0.42 0.40 0.39 0.36 0.44 0.53 0.58 0.62 0.60 0.57 0.54 0.50 0.52 0.53 0.48 0.43 0.38 0.38 0.40 0.41
0.03 0.03 0.04 0.05 0.10 0.17 0.24 0.30 0.34 0.38 0.46 0.49 0.50 0.56 0.68 0.90 1.06 0.89 0.70 0.64 0.60 0.52 0.51 0.51 0.44 0.39 0.35 0.32 0.34 0.40 0.46 0.49 0.48 0.48 0.45 0.45 0.46 0.44 0.38 0.34 0.32 0.34 0.36 0.37
0.04 0.05 0.06 0.09 0.16 0.27 0.40 0.52 0.61 0.65 0.74 0.79 0.70 0.64 0.65 0.72 0.82 0.81 0.68 0.58 0.54 0.52 0.47 0.46 0.44 0.39 0.34 0.32 0.29 0.33 0.39 0.45 0.47 0.45 0.40 0.43 0.41 0.37 0.36 0.34 0.29 0.28 0.28 0.26
0.07 0.07 0.09 0.13 0.20 0.32 0.48 0.63 0.76 0.85 0.93 1.01 0.96 0.82 0.75 0.72 0.75 0.74 0.67 0.60 0.56 0.55 0.52 0.49 0.46 0.43 0.40 0.36 0.31 0.31 0.36 0.42 0.45 0.44 0.42 0.43 0.46 0.44 0.37 0.32 0.27 0.21 0.19 0.16